Regional Weather Roundup
Issued by NWS

Home | Current Version | Previous Version | Text Only | Print | Product List | Glossary Off
Versions: 1 2 3 4 5 6 7 8 9 10 11 12 13 14 15 16 17 18 19 20 21 22 23 24 25 26 27 28 29 30 31 32 33 34 35 36 37 38 39 40 41 42 43 44 45 46 47 48 49 50

000
ASUS45 KCYS 260910
RWRWY

WYOMING REGIONAL WEATHER ROUNDUP
NATIONAL WEATHER SERVICE CHEYENNE WY
300 AM MDT SAT JUL 26 2014

NOTE:  "FAIR" INDICATES FEW OR NO CLOUDS BELOW 12,000 FEET
WITH NO SIGNIFICANT WEATHER AND/OR OBSTRUCTIONS TO VISIBILITY.

WYZ001-261000-
YELLOWSTONE NATIONAL PARK

CITY           SKY/WX    TMP DP  RH WIND       PRES   REMARKS
LK YELLOWSTONE   N/A     36  29  75 NW3       30.31S
W YELLOWSTONE  NOT AVBL

$$
WYZ002>013-054>058-071-098>099-261000-
NORTHERN WYOMING

CITY           SKY/WX    TMP DP  RH WIND       PRES   REMARKS
JACKSON        CLEAR     43  30  61 NE5       30.22R
CODY           NOT AVBL
GREYBULL       CLEAR     68  27  21 W8        30.01R
WORLAND        CLEAR     59  34  39 W9        30.04R
SHERIDAN       CLEAR     60  32  34 W12       30.06S
BUFFALO        CLEAR     65  25  22 N13       30.11R
GILLETTE       CLEAR     57  32  38 CALM      30.04R
HULETT         FAIR      61  45  55 MISG      30.03
NEWCASTLE      FAIR      64  43  45 N7        29.98

$$
WYZ014>020-022>026-101>103-261000-
CENTRAL WYOMING

CITY           SKY/WX    TMP DP  RH WIND       PRES   REMARKS
BIG PINEY      CLEAR     46  28  49 NE5       30.27S
PINEDALE       SUNNY     41  32  70 W7        30.29R
DUBOIS         FAIR      50  23  34 NW14      30.23R
LANDER         CLEAR     62  24  23 W8        30.12R
RIVERTON       CLEAR     59  22  24 NW6       30.12R
CASPER         CLEAR     59  35  40 CALM      30.14R
DOUGLAS        CLEAR     62  46  55 NW12      30.09R

$$
WYZ021-027>030-104>119-261000-
SOUTHERN WYOMING

CITY           SKY/WX    TMP DP  RH WIND       PRES   REMARKS
EVANSTON       PTCLDY    62  32  32 N8        30.27S
KEMMERER       PTSUNNY   54  32  43 N9        30.28S
FORT BRIDGER   FAIR      63  30  29 W7        30.29S
ROCK SPRINGS   PTCLDY    61  23  23 S7        30.23R
DIXON          FAIR      59  43  55 CALM      30.24F
RAWLINS        PTCLDY    66  42  41 W13       30.22S
SARATOGA       FAIR      61  45  55 S9        30.25S
LARAMIE        PTCLDY    58  43  57 SW8       30.23R
CHEYENNE       CLEAR     70  43  37 W17       30.12R
TORRINGTON     CLEAR     68  50  52 N10       29.95R
PINE BLUFFS    FAIR      63  50  63 W7        30.04F

$$


USA.gov is the U.S. government's official web portal to all federal, state and local government web resources and services.